�������l�o���
Date,Time,MP-1(��Sv/h),MP-2(��Sv/h),MP-3(��Sv/h),MP-4(��Sv/h),MP-5(��Sv/h),MP-6(��Sv/h),MP-7(��Sv/h),MP-8(��Sv/h),����,����(m/s),���J
2019/11/09,00:00,0.729,1.054,0.679,1.292,0.913,0.416,0.722,0.683,�k��,2.9,��
2019/11/09,00:10,0.729,1.052,0.680,1.289,0.911,0.415,0.723,0.682,���k��,2.4,��
2019/11/09,00:20,0.728,1.052,0.682,1.291,0.912,0.416,0.723,0.684,�k��,2.2,��
2019/11/09,00:30,0.728,1.052,0.681,1.289,0.912,0.416,0.723,0.684,���k��,3.2,��
2019/11/09,00:40,0.729,1.051,0.681,1.291,0.912,0.417,0.724,0.684,���k��,5.0,��
2019/11/09,00:50,0.726,1.052,0.680,1.292,0.913,0.416,0.722,0.685,���k��,4.9,��
2019/11/09,01:00,0.727,1.051,0.682,1.292,0.911,0.415,0.725,0.684,���k��,5.5,��
2019/11/09,01:10,0.729,1.053,0.681,1.292,0.912,0.416,0.722,0.686,���k��,4.9,��
2019/11/09,01:20,0.730,1.053,0.680,1.290,0.911,0.415,0.723,0.684,���k��,4.0,��
2019/11/09,01:30,0.728,1.051,0.680,1.290,0.911,0.415,0.722,0.684,���k��,4.4,��
2019/11/09,01:40,0.728,1.051,0.680,1.292,0.912,0.416,0.722,0.686,���k��,3.9,��
2019/11/09,01:50,0.729,1.052,0.680,1.294,0.911,0.415,0.723,0.685,���k��,3.9,��
2019/11/09,02:00,0.728,1.052,0.679,1.294,0.911,0.415,0.723,0.684,��,2.9,��
2019/11/09,02:10,0.727,1.052,0.679,1.292,0.911,0.415,0.721,0.685,��,2.8,��
2019/11/09,02:20,0.729,1.049,0.681,1.290,0.910,0.415,0.722,0.685,��,2.8,��
2019/11/09,02:30,0.731,1.050,0.678,1.292,0.911,0.415,0.721,0.685,��,2.7,��
2019/11/09,02:40,0.729,1.051,0.681,1.292,0.910,0.415,0.723,0.684,���k��,2.0,��
2019/11/09,02:50,0.728,1.050,0.679,1.291,0.909,0.414,0.722,0.686,���k��,2.3,��
2019/11/09,03:00,0.728,1.049,0.677,1.291,0.911,0.415,0.721,0.685,�k��,3.9,��
2019/11/09,03:10,0.729,1.051,0.681,1.291,0.912,0.415,0.722,0.686,�k��,3.3,��
2019/11/09,03:20,0.729,1.052,0.682,1.292,0.913,0.415,0.722,0.685,���k��,2.6,��
2019/11/09,03:30,0.728,1.053,0.679,1.291,0.910,0.417,0.722,0.684,���k��,1.4,��
2019/11/09,03:40,0.729,1.050,0.681,1.291,0.910,0.414,0.721,0.684,�쐼,1.2,��
2019/11/09,03:50,0.729,1.051,0.679,1.292,0.913,0.416,0.721,0.684,��,1.0,��
2019/11/09,04:00,0.727,1.050,0.680,1.292,0.912,0.415,0.721,0.685,��,1.3,��
2019/11/09,04:10,0.728,1.053,0.679,1.291,0.910,0.416,0.722,0.684,�k��,1.8,��
2019/11/09,04:20,0.730,1.049,0.679,1.290,0.911,0.415,0.721,0.685,�k��,3.4,��
2019/11/09,04:30,0.728,1.050,0.679,1.292,0.911,0.415,0.723,0.683,�k��,4.3,��
2019/11/09,04:40,0.727,1.050,0.679,1.291,0.910,0.417,0.721,0.685,���k��,3.8,��
2019/11/09,04:50,0.729,1.050,0.680,1.292,0.908,0.415,0.722,0.684,���k��,4.4,��
2019/11/09,05:00,0.729,1.053,0.680,1.291,0.911,0.415,0.722,0.685,���k��,5.3,��
2019/11/09,05:10,0.728,1.052,0.679,1.293,0.911,0.415,0.720,0.685,��,3.0,��
2019/11/09,05:20,0.728,1.053,0.679,1.291,0.910,0.415,0.722,0.685,��,3.2,��
2019/11/09,05:30,0.730,1.052,0.678,1.293,0.911,0.415,0.721,0.684,���쐼,3.0,��
2019/11/09,05:40,0.728,1.051,0.679,1.294,0.910,0.415,0.723,0.683,���쐼,2.6,��
2019/11/09,05:50,0.729,1.050,0.680,1.290,0.912,0.416,0.721,0.684,�쐼,2.7,��
2019/11/09,06:00,0.728,1.050,0.682,1.291,0.910,0.415,0.722,0.683,�쐼,2.4,��
2019/11/09,06:10,0.728,1.051,0.680,1.290,0.912,0.415,0.722,0.683,�쐼,1.6,��
2019/11/09,06:20,0.728,1.047,0.678,1.292,0.910,0.416,0.721,0.684,��쐼,1.2,��
2019/11/09,06:30,0.728,1.051,0.680,1.291,0.910,0.416,0.721,0.684,�쐼,2.5,��
2019/11/09,06:40,0.729,1.052,0.679,1.293,0.910,0.415,0.720,0.685,�쐼,2.9,��
2019/11/09,06:50,0.729,1.048,0.678,1.291,0.909,0.416,0.722,0.685,�쐼,2.2,��
2019/11/09,07:00,0.730,1.052,0.678,1.291,0.910,0.416,0.722,0.683,�쐼,2.7,��
2019/11/09,07:10,0.730,1.050,0.678,1.292,0.910,0.416,0.720,0.684,�쐼,2.5,��
2019/11/09,07:20,0.728,1.051,0.679,1.290,0.911,0.416,0.722,0.686,��쐼,1.5,��
2019/11/09,07:30,0.728,1.054,0.678,1.293,0.908,0.416,0.722,0.686,��쐼,1.8,��
2019/11/09,07:40,0.729,1.052,0.680,1.292,0.909,0.416,0.725,0.686,��쐼,3.1,��
2019/11/09,07:50,0.731,1.053,0.680,1.291,0.911,0.416,0.724,0.685,��쐼,2.1,��
2019/11/09,08:00,0.730,1.052,0.680,1.291,0.908,0.416,0.724,0.686,��쐼,2.1,��
2019/11/09,08:10,0.730,1.053,0.680,1.294,0.910,0.415,0.724,0.684,�쐼,2.0,��
2019/11/09,08:20,0.731,1.054,0.682,1.292,0.913,0.418,0.723,0.685,�쐼,2.6,��
2019/11/09,08:30,0.731,1.053,0.678,1.291,0.909,0.417,0.725,0.686,�쐼,2.0,��
2019/11/09,08:40,0.732,1.052,0.677,1.294,0.912,0.416,0.724,0.685,�쐼,1.3,��
2019/11/09,08:50,0.732,1.052,0.679,1.291,0.911,0.417,0.724,0.686,�쐼,1.1,��
2019/11/09,09:00,0.732,1.052,0.676,1.293,0.911,0.417,0.724,0.687,��쓌,1.0,��
2019/11/09,09:10,0.732,1.051,0.678,1.292,0.911,0.417,0.723,0.685,��쓌,2.2,��
2019/11/09,09:20,0.733,1.051,0.680,1.293,0.911,0.416,0.724,0.685,�쓌,1.4,��
2019/11/09,09:30,0.733,1.051,0.680,1.288,0.913,0.417,0.723,0.684,��,1.5,��
2019/11/09,09:40,0.732,1.051,0.680,1.293,0.913,0.418,0.723,0.686,�쓌,1.3,��
2019/11/09,09:50,0.732,1.052,0.680,1.291,0.911,0.419,0.721,0.686,��쓌,0.9,��
2019/11/09,10:00,0.731,1.051,0.678,1.291,0.911,0.418,0.722,0.685,�쓌,1.7,��
2019/11/09,10:10,0.734,1.052,0.677,1.293,0.913,0.418,0.722,0.686,�쓌,2.5,��
2019/11/09,10:20,0.732,1.054,0.679,1.292,0.911,0.418,0.721,0.687,���쓌,2.4,��
2019/11/09,10:30,0.731,1.053,0.677,1.295,0.912,0.415,0.724,0.685,�쓌,2.8,��
2019/11/09,10:40,0.731,1.053,0.678,1.295,0.915,0.416,0.723,0.685,�쓌,3.2,��
2019/11/09,10:50,0.731,1.054,0.678,1.294,0.912,0.415,0.723,0.686,��쓌,3.8,��
2019/11/09,11:00,0.731,1.056,0.679,1.291,0.911,0.416,0.723,0.685,��쓌,3.2,��
2019/11/09,11:10,0.731,1.054,0.683,1.293,0.912,0.416,0.725,0.687,��쓌,4.3,��
2019/11/09,11:20,0.731,1.053,0.682,1.294,0.911,0.414,0.723,0.686,��쓌,5.6,��
2019/11/09,11:30,0.732,1.055,0.679,1.291,0.911,0.416,0.724,0.685,��쓌,5.5,��
2019/11/09,11:40,0.732,1.053,0.682,1.295,0.912,0.416,0.723,0.686,��쓌,5.2,��
2019/11/09,11:50,0.734,1.054,0.681,1.295,0.912,0.417,0.724,0.688,��쓌,5.8,��
2019/11/09,12:00,0.732,1.055,0.682,1.293,0.914,0.417,0.725,0.686,��쓌,4.9,��
2019/11/09,12:10,0.731,1.056,0.682,1.294,0.913,0.417,0.724,0.686,��쓌,5.8,��
2019/11/09,12:20,0.731,1.056,0.681,1.294,0.912,0.420,0.726,0.687,��쓌,6.0,��
2019/11/09,12:30,0.731,1.053,0.680,1.294,0.915,0.419,0.724,0.685,��쓌,6.6,��
2019/11/09,12:40,0.732,1.058,0.679,1.294,0.915,0.418,0.724,0.682,��쓌,6.9,��
2019/11/09,12:50,0.732,1.056,0.678,1.295,0.916,0.419,0.725,0.683,��쓌,6.1,��
2019/11/09,13:00,0.732,1.055,0.679,1.295,0.915,0.420,0.724,0.684,��쓌,6.1,��
2019/11/09,13:10,0.733,1.055,0.678,1.295,0.915,0.420,0.725,0.684,��쓌,5.2,��
2019/11/09,13:20,0.731,1.056,0.679,1.295,0.916,0.419,0.724,0.685,��쓌,5.7,��
2019/11/09,13:30,0.731,1.057,0.679,1.297,0.915,0.419,0.723,0.684,��쓌,5.7,��
2019/11/09,13:40,0.732,1.055,0.682,1.298,0.913,0.420,0.723,0.684,��쓌,6.4,��
2019/11/09,13:50,0.732,1.057,0.680,1.295,0.916,0.418,0.724,0.684,��쓌,6.6,��
2019/11/09,14:00,0.734,1.060,0.680,1.294,0.914,0.419,0.725,0.684,��쓌,5.5,��
2019/11/09,14:10,0.731,1.059,0.679,1.295,0.915,0.420,0.725,0.684,��쓌,5.5,��
2019/11/09,14:20,0.732,1.058,0.683,1.294,0.916,0.420,0.724,0.684,��쓌,6.3,��
2019/11/09,14:30,0.732,1.058,0.681,1.294,0.917,0.419,0.726,0.684,��,6.3,��
2019/11/09,14:40,0.732,1.058,0.681,1.296,0.915,0.419,0.724,0.685,��쓌,6.0,��
2019/11/09,14:50,0.732,1.057,0.683,1.297,0.916,0.421,0.725,0.683,��,5.8,��
2019/11/09,15:00,0.733,1.059,0.683,1.296,0.917,0.421,0.724,0.682,��,6.0,��
2019/11/09,15:10,0.730,1.061,0.683,1.297,0.916,0.420,0.724,0.685,��쓌,4.4,��
2019/11/09,15:20,0.733,1.061,0.682,1.294,0.915,0.419,0.727,0.684,��,5.5,��
2019/11/09,15:30,0.730,1.061,0.683,1.298,0.914,0.420,0.724,0.684,��쓌,5.8,��
2019/11/09,15:40,0.732,1.061,0.682,1.297,0.915,0.421,0.726,0.687,��쓌,5.5,��
2019/11/09,15:50,0.732,1.060,0.682,1.296,0.915,0.420,0.726,0.686,��,6.0,��
2019/11/09,16:00,0.731,1.059,0.682,1.295,0.916,0.422,0.725,0.687,��,5.8,��
2019/11/09,16:10,0.731,1.061,0.682,1.296,0.916,0.420,0.725,0.686,��,4.9,��
2019/11/09,16:20,0.731,1.060,0.684,1.296,0.914,0.421,0.727,0.688,��,4.4,��
2019/11/09,16:30,0.732,1.063,0.684,1.296,0.914,0.421,0.727,0.686,��,4.4,��
2019/11/09,16:40,0.730,1.062,0.685,1.295,0.913,0.419,0.728,0.686,��,5.0,��
2019/11/09,16:50,0.732,1.062,0.684,1.295,0.915,0.419,0.725,0.685,��,4.7,��
2019/11/09,17:00,0.733,1.062,0.685,1.297,0.918,0.419,0.727,0.686,��,4.7,��
2019/11/09,17:10,0.733,1.062,0.684,1.294,0.915,0.421,0.727,0.686,��,5.0,��
2019/11/09,17:20,0.731,1.060,0.685,1.295,0.918,0.420,0.724,0.688,��,4.1,��
2019/11/09,17:30,0.733,1.060,0.684,1.296,0.918,0.420,0.726,0.686,��쐼,3.6,��
2019/11/09,17:40,0.732,1.061,0.683,1.293,0.916,0.420,0.727,0.688,��쐼,3.5,��
2019/11/09,17:50,0.732,1.062,0.683,1.296,0.921,0.418,0.725,0.685,��쐼,4.0,��
2019/11/09,18:00,0.732,1.061,0.684,1.296,0.917,0.419,0.725,0.685,��쐼,3.5,��
2019/11/09,18:10,0.733,1.062,0.685,1.295,0.917,0.421,0.724,0.687,�쐼,3.1,��
2019/11/09,18:20,0.734,1.062,0.684,1.296,0.916,0.418,0.726,0.689,���k��,2.3,�L
2019/11/09,18:30,0.735,1.062,0.684,1.296,0.916,0.419,0.724,0.688,�k��,2.8,�L
2019/11/09,18:40,0.735,1.060,0.686,1.296,0.921,0.419,0.724,0.687,�k��,3.9,��
2019/11/09,18:50,0.734,1.063,0.686,1.298,0.919,0.419,0.724,0.686,�k��,4.9,�L
2019/11/09,19:00,0.735,1.059,0.683,1.297,0.916,0.419,0.723,0.686,�k�k��,4.0,�L
2019/11/09,19:10,0.733,1.061,0.687,1.295,0.918,0.419,0.725,0.687,�k�k��,4.3,��
2019/11/09,19:20,0.735,1.061,0.685,1.295,0.918,0.418,0.725,0.687,�k��,3.6,��
2019/11/09,19:30,0.734,1.060,0.683,1.297,0.917,0.420,0.727,0.690,�k��,4.9,��
2019/11/09,19:40,0.734,1.061,0.684,1.298,0.919,0.420,0.725,0.688,�k��,4.9,��
2019/11/09,19:50,0.734,1.060,0.683,1.297,0.918,0.419,0.727,0.686,�k�k��,4.7,��
2019/11/09,20:00,0.732,1.061,0.685,1.293,0.918,0.418,0.724,0.686,�k��,5.2,��
2019/11/09,20:10,0.735,1.060,0.686,1.295,0.918,0.418,0.725,0.687,�k��,4.6,��
2019/11/09,20:20,0.734,1.061,0.685,1.298,0.917,0.419,0.725,0.687,�k��,5.6,��
2019/11/09,20:30,0.736,1.059,0.683,1.297,0.919,0.420,0.725,0.685,�k��,6.3,��
2019/11/09,20:40,0.733,1.060,0.684,1.297,0.920,0.418,0.725,0.686,�k��,4.9,��
2019/11/09,20:50,0.735,1.062,0.684,1.296,0.917,0.419,0.723,0.687,�k��,5.2,��
2019/11/09,21:00,0.734,1.059,0.683,1.295,0.916,0.418,0.726,0.687,�k��,5.7,��
2019/11/09,21:10,0.735,1.059,0.683,1.296,0.918,0.418,0.725,0.686,�k��,5.5,��
2019/11/09,21:20,0.734,1.061,0.684,1.298,0.915,0.418,0.725,0.687,�k��,5.6,��
2019/11/09,21:30,0.735,1.059,0.682,1.297,0.917,0.417,0.723,0.688,�k��,6.4,��
2019/11/09,21:40,0.734,1.058,0.685,1.298,0.916,0.417,0.725,0.686,�k��,6.3,��
2019/11/09,21:50,0.734,1.061,0.683,1.297,0.916,0.418,0.724,0.686,�k��,6.6,��
2019/11/09,22:00,0.735,1.059,0.684,1.298,0.918,0.416,0.725,0.685,�k��,4.9,��
2019/11/09,22:10,0.732,1.056,0.684,1.295,0.917,0.417,0.725,0.686,�k��,6.0,��
2019/11/09,22:20,0.735,1.059,0.684,1.297,0.918,0.418,0.725,0.686,�k��,6.0,��
2019/11/09,22:30,0.734,1.057,0.684,1.295,0.918,0.417,0.725,0.686,�k��,6.0,��
2019/11/09,22:40,0.733,1.057,0.685,1.297,0.918,0.416,0.724,0.687,�k��,6.0,��
2019/11/09,22:50,0.734,1.059,0.685,1.297,0.916,0.418,0.725,0.688,�k��,6.0,��
2019/11/09,23:00,0.734,1.059,0.683,1.297,0.916,0.418,0.724,0.686,�k��,6.6,��
2019/11/09,23:10,0.733,1.058,0.684,1.297,0.916,0.418,0.724,0.688,�k��,6.4,��
2019/11/09,23:20,0.733,1.057,0.682,1.295,0.918,0.416,0.724,0.687,�k��,6.9,��
2019/11/09,23:30,0.733,1.057,0.684,1.295,0.914,0.416,0.724,0.686,���k��,6.9,��
2019/11/09,23:40,0.733,1.056,0.684,1.296,0.915,0.418,0.724,0.687,�k��,6.0,��
2019/11/09,23:50,0.733,1.057,0.684,1.295,0.916,0.417,0.723,0.687,�k��,6.6,��
